Starlink 5666

operational
NORAD ID: 55349 Int'l Des: 2023-013 Owner: SPXS Country: US Constellation: starlink
LEOCIRCULAR

Über Starlink 5666

Beschreibung wird geladen...

Live-Position

3D-Globus wird geladen...

Nächste Überflüge

Höhenverlauf

Altitude vs Time

uPlot chart will show altitude changes over time

Zweizeiliger Elementsatz

1 55349U 23013U 25258.47917016 .00000779 00000-0 72756-4 0 9996
2 55349 43.0030 172.3378 0001194 265.8698 94.2008 15.02539094145357
Epoch: 15. Sept. 2025 • Age: 11 hours

Aktueller Status

Höhe 558.5 km
Geschwindigkeit 7.59 km/s
Subsatellitenpunkt 15.74°N, 149.44°W
Startdatum 26. Jan. 2023
Alter 2.6 years
Typ internet

Technische Details

Klassifizierung Payload
Masse 305.00 kg
Trockenmasse 290.00 kg
Gesamtmasse 305.00 kg
Länge 0.20 m
Durchmesser 2.80 m
Spannweite 9.00 m
Form Box + pan
Hersteller SPXS
Bus-Typ Starlink
Phasenstatus In Orbit
Besitzer/Staat SPXS/US

Große Konstellationen

Loading constellations...